This is the latest recevied weather packets stored in our database for station/object KI4HRG. If no packets are shown the sender has not sent any weather packets the latest 10 day(s).
| Time | Temp. | Humidity | Pressure | Rain* | Wind** | Luminosity | Snow |
|---|---|---|---|---|---|---|---|
| 1787465954 | 21.67° C | 99% | 1014.6 hPa | 0 mm | - | 0 W/m² | - |
| 1787465648 | 21.67° C | 99% | 1014.6 hPa | 0 mm | - | 0 W/m² | - |
| 1787465344 | 21.67° C | 99% | 1014.3 hPa | 0 mm | - | 0 W/m² | - |
| 1787465039 | 21.67° C | 99% | 1014.6 hPa | 0 mm | - | 0 W/m² | - |
| 1787464735 | 21.67° C | 99% | 1014.6 hPa | 0 mm | - | 0 W/m² | - |
| 1787464430 | 21.67° C | 99% | 1014.6 hPa | 0 mm | - | 0 W/m² | - |
| 1787464126 | 21.67° C | 99% | 1014.2 hPa | 0 mm | - | 0 W/m² | - |
| 1787463823 | 21.67° C | 99% | 1014.3 hPa | 1.78 mm | - | 0 W/m² | - |
| 1787463517 | 21.67° C | 99% | 1014.4 hPa | 1.78 mm | - | 0 W/m² | - |
| 1787463214 | 21.67° C | 99% | 1014.1 hPa | 0 mm | - | 0 W/m² | - |
| 1787462910 | 21.67° C | 99% | 1014.6 hPa | 0 mm | - | 0 W/m² | - |
| 1787462606 | 22.22° C | 99% | 1014.4 hPa | 0 mm | - | 0 W/m² | - |
| 1787462301 | 21.67° C | 99% | 1014.9 hPa | 0 mm | - | 0 W/m² | - |
| 1787461998 | 21.67° C | 99% | 1015.2 hPa | 0 mm | - | 0 W/m² | - |
| 1787461693 | 21.67° C | 99% | 1015.3 hPa | 0 mm | - | 0 W/m² | - |
| 1787461388 | 22.22° C | 99% | 1015.4 hPa | 0 mm | - | 0 W/m² | - |
| 1787461083 | 22.22° C | 99% | 1015.8 hPa | 0 mm | - | 0 W/m² | - |
| 1787460778 | 22.22° C | 99% | 1015.9 hPa | 0 mm | - | 0 W/m² | - |
| 1787460474 | 22.22° C | 98% | 1016.2 hPa | 0 mm | - | 0 W/m² | - |
| 1787460171 | 22.22° C | 97% | 1016.3 hPa | 0 mm | - | 0 W/m² | - |
| 1787459868 | 22.22° C | 96% | 1016.7 hPa | 1.27 mm | - | 0 W/m² | - |
| 1787459564 | 22.22° C | 95% | 1017 hPa | 1.27 mm | - | 0 W/m² | - |
| 1787459262 | 22.78° C | 94% | 1016.8 hPa | 1.78 mm | - | 0 W/m² | - |
| 1787458958 | 23.33° C | 92% | 1017.1 hPa | 3.05 mm | - | 0 W/m² | - |
| 1787458657 | 23.33° C | 89% | 1017.4 hPa | 3.05 mm | - | 0 W/m² | - |
* Rain latest hour (hover to see other rain measurements)
** Current wind speed in m/s (hover to see current wind gust speed)